^^
Station Historical Data
 
Daily Summary for February 26, 2015 Units:  Metric    English   Both
« Previous Day
Next Day »
Daily Weekly Monthly Yearly Custom
  Current: High: Low: Average:
Temperature: -2.3 °C 5.6 °C -3.2 °C -0.1 °C
Dew Point: -4.8 °C 1.0 °C -4.8 °C -3 °C
Humidity: 83% 99% 52% 83%
Wind Speed: 0.0km/h 3.4km/h 0.0km/h 0.3km/h
Wind Gust: 0.0km/h 11.3km/h - -
WindCalm - - SSE
Pressure: 1015.1 hPa 1023.6 hPa 1015.1 hPa -
Precipitation: 0.3 mm      
Historical Graphs
 
 
Tabular Data for February 26, 2015
Time Temperature Dew Point Pressure Wind Wind Speed Wind Gust Humidity Rainfall Rate (Hourly) solar Conditions
00:05 -1.9 °C -3.0 °C 1021.9 hPa Calm     92% 0.0 mm 0 W/m2
00:10 -2.0 °C -3.1 °C 1021.9 hPa Calm     92% 0.0 mm 0 W/m2
00:15 -2.1 °C -3.2 °C 1022.2 hPa Calm     92% 0.0 mm 0 W/m2
00:25 -2.2 °C -3.3 °C 1022.2 hPa Calm     92% 0.0 mm 0 W/m2
00:30 -2.2 °C -3.3 °C 1022.2 hPa Calm     92% 0.0 mm 0 W/m2
00:35 -2.3 °C -3.4 °C 1021.9 hPa Calm     92% 0.0 mm 0 W/m2
00:40 -2.3 °C -3.4 °C 1022.2 hPa Calm     92% 0.0 mm 0 W/m2
00:45 -2.3 °C -3.4 °C 1022.2 hPa Calm   1.6 km/h 92% 0.0 mm 0 W/m2
00:50 -2.3 °C -3.4 °C 1022.2 hPa Calm     92% 0.0 mm 0 W/m2
00:55 -2.4 °C -3.5 °C 1022.2 hPa Calm     92% 0.0 mm 0 W/m2
01:00 -2.4 °C -3.5 °C 1021.9 hPa Calm     92% 0.0 mm 0 W/m2
01:05 -2.5 °C -3.6 °C 1022.2 hPa Calm     92% 0.0 mm 0 W/m2
01:10 -2.5 °C -3.6 °C 1022.2 hPa Calm     92% 0.0 mm 0 W/m2
01:15 -2.6 °C -3.7 °C 1022.2 hPa Calm     92% 0.0 mm 0 W/m2
01:20 -2.7 °C -3.7 °C 1022.2 hPa Calm     93% 0.0 mm 0 W/m2
01:25 -2.7 °C -3.7 °C 1022.2 hPa Calm     93% 0.0 mm 0 W/m2
01:30 -2.7 °C -3.7 °C 1022.2 hPa Calm     93% 0.0 mm 0 W/m2
01:35 -2.7 °C -3.7 °C 1022.2 hPa Calm     93% 0.0 mm 0 W/m2
01:40 -2.8 °C -3.8 °C 1022.2 hPa Calm     93% 0.0 mm 0 W/m2
01:45 -2.8 °C -3.8 °C 1022.2 hPa Calm     93% 0.0 mm 0 W/m2
01:50 -2.8 °C -3.8 °C 1022.6 hPa Calm     93% 0.0 mm 0 W/m2
01:55 -2.8 °C -3.8 °C 1022.6 hPa Calm     93% 0.0 mm 0 W/m2
02:00 -2.8 °C -3.8 °C 1022.6 hPa Calm     93% 0.0 mm 0 W/m2
02:05 -2.9 °C -3.9 °C 1022.6 hPa Calm     93% 0.0 mm 0 W/m2
02:10 -2.9 °C -3.9 °C 1022.6 hPa Calm     93% 0.0 mm 0 W/m2
02:15 -2.9 °C -3.9 °C 1022.6 hPa Calm     93% 0.0 mm 0 W/m2
02:20 -2.9 °C -3.9 °C 1022.6 hPa Calm     93% 0.0 mm 0 W/m2
02:25 -2.9 °C -3.9 °C 1022.6 hPa Calm     93% 0.0 mm 0 W/m2
02:30 -2.9 °C -3.9 °C 1022.6 hPa Calm     93% 0.0 mm 0 W/m2
02:35 -2.8 °C -3.6 °C 1022.9 hPa Calm     94% 0.0 mm 0 W/m2
02:40 -2.8 °C -3.6 °C 1022.6 hPa Calm     94% 0.0 mm 0 W/m2
02:45 -2.8 °C -3.6 °C 1022.6 hPa Calm     94% 0.0 mm 0 W/m2
02:50 -2.7 °C -3.6 °C 1022.9 hPa Calm     94% 0.0 mm 0 W/m2
02:55 -2.7 °C -3.6 °C 1022.6 hPa Calm     94% 0.0 mm 0 W/m2
03:00 -2.6 °C -3.4 °C 1022.9 hPa Calm     94% 0.0 mm 0 W/m2
03:05 -2.6 °C -3.4 °C 1022.9 hPa Calm     94% 0.0 mm 0 W/m2
03:10 -2.5 °C -3.3 °C 1022.9 hPa Calm     94% 0.0 mm 0 W/m2
03:15 -2.4 °C -3.2 °C 1022.9 hPa Calm     94% 0.0 mm 0 W/m2
03:20 -2.4 °C -3.2 °C 1022.9 hPa Calm     94% 0.0 mm 0 W/m2
03:25 -2.4 °C -3.2 °C 1022.9 hPa Calm     94% 0.0 mm 0 W/m2
03:30 -2.4 °C -3.2 °C 1022.9 hPa Calm     94% 0.0 mm 0 W/m2
03:35 -2.4 °C -3.2 °C 1022.9 hPa Calm     94% 0.0 mm 0 W/m2
03:40 -2.4 °C -3.2 °C 1022.9 hPa Calm     94% 0.0 mm 0 W/m2
03:45 -2.4 °C -3.2 °C 1022.9 hPa Calm     94% 0.0 mm 0 W/m2
03:50 -2.4 °C -3.2 °C 1022.9 hPa Calm     94% 0.0 mm 0 W/m2
03:55 -2.5 °C -3.3 °C 1022.9 hPa Calm     94% 0.0 mm 0 W/m2
04:00 -2.6 °C -3.4 °C 1022.9 hPa Calm     94% 0.0 mm 0 W/m2
04:05 -2.6 °C -3.4 °C 1022.6 hPa Calm     94% 0.0 mm 0 W/m2
04:10 -2.7 °C -3.6 °C 1022.6 hPa Calm     94% 0.0 mm 0 W/m2
04:15 -2.8 °C -3.6 °C 1022.9 hPa Calm     94% 0.0 mm 0 W/m2
04:20 -2.8 °C -3.6 °C 1022.6 hPa Calm     94% 0.0 mm 0 W/m2
04:25 -2.9 °C -3.7 °C 1022.9 hPa Calm     94% 0.0 mm 0 W/m2
04:30 -3.0 °C -3.8 °C 1022.9 hPa Calm     94% 0.0 mm 0 W/m2
04:35 -3.1 °C -3.9 °C 1022.9 hPa Calm     94% 0.0 mm 0 W/m2
04:40 -3.2 °C -4.0 °C 1022.9 hPa Calm     94% 0.0 mm 0 W/m2
04:45 -3.2 °C -4.0 °C 1022.9 hPa Calm     94% 0.0 mm 0 W/m2
04:50 -3.2 °C -4.0 °C 1022.9 hPa Calm     94% 0.0 mm 0 W/m2
04:55 -3.2 °C -4.0 °C 1022.9 hPa Calm     94% 0.0 mm 0 W/m2
05:00 -3.2 °C -4.0 °C 1022.9 hPa Calm     94% 0.0 mm 0 W/m2
05:05 -3.2 °C -4.0 °C 1022.9 hPa Calm     94% 0.0 mm 0 W/m2
05:15 -3.2 °C -4.0 °C 1022.9 hPa Calm     94% 0.0 mm 0 W/m2
05:20 -3.1 °C -3.9 °C 1022.9 hPa Calm     94% 0.0 mm 0 W/m2
05:25 -3.1 °C -3.9 °C 1023.2 hPa Calm     94% 0.0 mm 0 W/m2
05:30 -3.0 °C -3.7 °C 1023.2 hPa Calm     95% 0.0 mm 0 W/m2
05:35 -2.9 °C -3.6 °C 1023.2 hPa Calm     95% 0.0 mm 0 W/m2
05:40 -2.8 °C -3.5 °C 1023.2 hPa Calm     95% 0.0 mm 0 W/m2
05:45 -2.7 °C -3.4 °C 1023.2 hPa Calm     95% 0.0 mm 0 W/m2
05:50 -2.6 °C -3.3 °C 1023.2 hPa Calm     95% 0.0 mm 0 W/m2
05:55 -2.5 °C -3.2 °C 1022.9 hPa Calm     95% 0.0 mm 0 W/m2
06:00 -2.4 °C -3.1 °C 1022.9 hPa Calm     95% 0.0 mm 0 W/m2
06:05 -2.3 °C -3.0 °C 1022.9 hPa Calm     95% 0.0 mm 0 W/m2
06:10 -2.3 °C -3.0 °C 1022.9 hPa Calm     95% 0.0 mm 0 W/m2
06:15 -2.2 °C -2.9 °C 1022.9 hPa Calm     95% 0.0 mm 0 W/m2
06:20 -2.2 °C -2.9 °C 1022.9 hPa Calm     95% 0.0 mm 0 W/m2
06:25 -2.2 °C -2.9 °C 1022.9 hPa Calm     95% 0.0 mm 0 W/m2
06:30 -2.3 °C -3.0 °C 1022.9 hPa Calm     95% 0.0 mm 0 W/m2
06:35 -2.3 °C -3.0 °C 1023.2 hPa Calm     95% 0.0 mm 0 W/m2
06:40 -2.3 °C -3.0 °C 1023.2 hPa Calm     95% 0.0 mm 0 W/m2
06:45 -2.3 °C -3.0 °C 1023.2 hPa Calm     95% 0.0 mm 0 W/m2
06:50 -2.3 °C -3.0 °C 1023.2 hPa Calm     95% 0.0 mm 0 W/m2
06:55 -2.3 °C -3.0 °C 1022.9 hPa Calm     95% 0.0 mm 0 W/m2
07:00 -2.4 °C -3.1 °C 1023.2 hPa ESE 0.2 km/h 3.2 km/h 95% 0.0 mm 0 W/m2
07:05 -2.4 °C -3.1 °C 1023.2 hPa Calm   1.6 km/h 95% 0.0 mm 0 W/m2
07:10 -2.4 °C -3.1 °C 1023.2 hPa ESE 0.2 km/h 1.6 km/h 95% 0.0 mm 0 W/m2
07:15 -2.4 °C -3.1 °C 1023.2 hPa Calm   1.6 km/h 95% 0.0 mm 0 W/m2
07:20 -2.4 °C -3.1 °C 1023.2 hPa Calm     95% 0.0 mm 5 W/m2
07:25 -2.4 °C -3.1 °C 1023.2 hPa Calm     95% 0.0 mm 7 W/m2
07:30 -2.4 °C -3.1 °C 1023.2 hPa Calm     95% 0.0 mm 7 W/m2
07:35 -2.4 °C -3.1 °C 1023.2 hPa Calm     95% 0.0 mm 11 W/m2
07:40 -2.3 °C -3.0 °C 1023.2 hPa Calm     95% 0.0 mm 14 W/m2
07:45 -2.3 °C -3.0 °C 1023.2 hPa Calm   1.6 km/h 95% 0.0 mm 18 W/m2
07:50 -2.3 °C -3.0 °C 1023.2 hPa Calm     95% 0.0 mm 21 W/m2
07:55 -2.3 °C -3.0 °C 1023.2 hPa Calm     95% 0.0 mm 23 W/m2
08:00 -2.2 °C -2.9 °C 1023.2 hPa ESE 0.2 km/h 4.8 km/h 95% 0.0 mm 28 W/m2
08:05 -2.2 °C -2.7 °C 1023.2 hPa SSW 0.2 km/h 6.4 km/h 96% 0.0 mm 30 W/m2
08:10 -2.2 °C -2.7 °C 1023.2 hPa SSW 0.3 km/h 3.2 km/h 96% 0.0 mm 32 W/m2
08:15 -2.2 °C -2.7 °C 1023.6 hPa SSW 0.2 km/h 3.2 km/h 96% 0.0 mm 26 W/m2
08:20 -2.1 °C -2.7 °C 1023.6 hPa Calm     96% 0.0 mm 35 W/m2
08:25 -2.1 °C -2.7 °C 1023.6 hPa Calm     96% 0.0 mm 37 W/m2
08:30 -2.0 °C -2.6 °C 1023.6 hPa SSW 0.2 km/h 3.2 km/h 96% 0.0 mm 39 W/m2
08:35 -1.9 °C -2.4 °C 1023.6 hPa Calm     96% 0.0 mm 42 W/m2
08:40 -1.9 °C -2.4 °C 1023.6 hPa SSW 0.3 km/h 3.2 km/h 96% 0.0 mm 47 W/m2
08:45 -1.9 °C -2.6 °C 1023.6 hPa Calm     95% 0.0 mm 51 W/m2
08:50 -1.9 °C -2.6 °C 1023.2 hPa SSW 0.3 km/h 3.2 km/h 95% 0.0 mm 62 W/m2
08:55 -1.9 °C -2.4 °C 1023.2 hPa SSW 0.2 km/h 1.6 km/h 96% 0.0 mm 62 W/m2
09:00 -1.8 °C -2.3 °C 1023.2 hPa Calm   1.6 km/h 96% 0.0 mm 67 W/m2
09:05 -1.8 °C -2.3 °C 1023.2 hPa Calm     96% 0.0 mm 74 W/m2
09:10 -1.8 °C -2.3 °C 1023.2 hPa Calm     96% 0.0 mm 77 W/m2
09:20 -1.8 °C -2.3 °C 1023.2 hPa Calm     96% 0.0 mm 88 W/m2
09:25 -1.7 °C -2.3 °C 1023.2 hPa Calm     96% 0.0 mm 95 W/m2
09:30 -1.7 °C -2.3 °C 1023.2 hPa Calm     96% 0.0 mm 95 W/m2
09:35 -1.6 °C -2.2 °C 1023.2 hPa Calm     96% 0.0 mm 95 W/m2
09:40 -1.6 °C -2.2 °C 1023.2 hPa Calm     96% 0.0 mm 102 W/m2
09:45 -1.5 °C -2.1 °C 1023.2 hPa Calm     96% 0.0 mm 104 W/m2
09:50 -1.5 °C -2.1 °C 1022.9 hPa SSW 0.6 km/h 4.8 km/h 96% 0.0 mm 116 W/m2
09:55 -1.4 °C -1.9 °C 1022.9 hPa Calm     96% 0.0 mm 120 W/m2
10:00 -1.4 °C -1.9 °C 1022.9 hPa Calm     96% 0.0 mm 120 W/m2
10:05 -1.4 °C -1.9 °C 1022.9 hPa Calm     96% 0.0 mm 151 W/m2
10:10 -1.4 °C -1.9 °C 1022.9 hPa Calm     96% 0.0 mm 155 W/m2
10:15 -1.4 °C -1.9 °C 1022.9 hPa Calm   0.3 km/h 96% 0.0 mm 139 W/m2
10:20 -1.4 °C -1.9 °C 1022.9 hPa Calm     96% 0.0 mm 139 W/m2
10:25 -1.3 °C -1.8 °C 1022.6 hPa Calm     96% 0.0 mm 141 W/m2
10:30 -1.4 °C -1.9 °C 1022.9 hPa Calm     96% 0.0 mm 142 W/m2
10:35 -1.3 °C -1.8 °C 1022.9 hPa Calm     96% 0.0 mm 171 W/m2
10:40 -1.3 °C -1.8 °C 1022.9 hPa Calm     96% 0.0 mm 172 W/m2
10:45 -1.3 °C -1.8 °C 1022.9 hPa Calm     96% 0.0 mm 199 W/m2
10:50 -1.3 °C -1.8 °C 1022.9 hPa Calm     96% 0.0 mm 193 W/m2
10:55 -1.3 °C -1.8 °C 1022.9 hPa Calm     96% 0.0 mm 236 W/m2
11:00 -0.9 °C -1.4 °C 1022.9 hPa Calm     96% 0.0 mm 295 W/m2
11:05 -0.5 °C -0.9 °C 1022.9 hPa Calm     97% 0.0 mm 322 W/m2
11:10 -0.6 °C -1.2 °C 1022.6 hPa Calm     96% 0.0 mm 181 W/m2
11:15 -0.7 °C -1.4 °C 1022.6 hPa Calm     95% 0.0 mm 151 W/m2
11:20 -0.6 °C -1.2 °C 1022.6 hPa Calm     96% 0.0 mm 141 W/m2
11:25 -0.3 °C -1.0 °C 1022.6 hPa Calm     95% 0.0 mm 116 W/m2
11:30 0.1 °C -0.6 °C 1022.6 hPa Calm     95% 0.0 mm 162 W/m2
11:35 0.3 °C -0.6 °C 1022.6 hPa Calm     94% 0.0 mm 207 W/m2
11:40 0.5 °C -0.5 °C 1022.6 hPa Calm     93% 0.0 mm 373 W/m2
11:45 0.8 °C -0.2 °C 1022.6 hPa WNW 0.6 km/h 6.4 km/h 93% 0.0 mm 385 W/m2
11:50 1.1 °C 0.9 °C 1022.2 hPa WNW 0.6 km/h 4.8 km/h 99% 0.0 mm 387 W/m2
11:55 1.1 °C 0.1 °C 1022.2 hPa WNW 0.6 km/h 4.8 km/h 93% 0.0 mm 341 W/m2
12:05 1.1 °C -0.1 °C 1022.2 hPa WNW 2.6 km/h 8.0 km/h 92% 0.0 mm 390 W/m2
12:10 1.3 °C 0.2 °C 1021.9 hPa WNW 2.4 km/h 6.4 km/h 92% 0.0 mm 401 W/m2
12:15 1.3 °C 0.2 °C 1021.9 hPa WNW 2.3 km/h 8.0 km/h 92% 0.0 mm 399 W/m2
12:20 1.4 °C 0.1 °C 1021.9 hPa WNW 2.4 km/h 8.0 km/h 91% 0.0 mm 327 W/m2
12:25 1.6 °C 0.3 °C 1021.6 hPa WNW 1.8 km/h 6.4 km/h 91% 0.0 mm 401 W/m2
12:30 1.8 °C 0.5 °C 1021.6 hPa WNW 0.8 km/h 6.4 km/h 91% 0.0 mm 392 W/m2
12:35 2.1 °C 0.6 °C 1021.6 hPa WNW 3.4 km/h 8.0 km/h 90% 0.0 mm 360 W/m2
12:40 2.2 °C 0.6 °C 1021.6 hPa WNW 2.7 km/h 9.7 km/h 89% 0.0 mm 411 W/m2
12:45 2.3 °C 0.7 °C 1021.2 hPa WNW 2.1 km/h 6.4 km/h 89% 0.0 mm 406 W/m2
12:50 2.5 °C 0.7 °C 1021.2 hPa WNW 1.1 km/h 6.4 km/h 88% 0.0 mm 401 W/m2
12:55 2.6 °C 0.8 °C 1021.2 hPa WNW 1.1 km/h 6.4 km/h 88% 0.0 mm 401 W/m2
13:00 2.7 °C 0.8 °C 1021.2 hPa WNW 1.0 km/h 6.4 km/h 87% 0.0 mm 397 W/m2
13:05 2.8 °C 0.8 °C 1020.9 hPa WNW 1.1 km/h 6.4 km/h 87% 0.0 mm 399 W/m2
13:15 3.1 °C 1.0 °C 1020.9 hPa WNW 1.1 km/h 4.8 km/h 86% 0.0 mm 394 W/m2
13:20 3.1 °C 0.5 °C 1020.9 hPa Calm   1.6 km/h 83% 0.0 mm 396 W/m2
13:30 3.3 °C 0.6 °C 1020.5 hPa NW 0.8 km/h 4.8 km/h 82% 0.0 mm 387 W/m2
13:40 3.6 °C -0.4 °C 1020.5 hPa ESE 0.3 km/h 3.2 km/h 75% 0.0 mm 388 W/m2
13:45 3.9 °C 0.1 °C 1020.5 hPa ESE 0.2 km/h 1.6 km/h 76% 0.0 mm 378 W/m2
13:55 4.1 °C -0.3 °C 1020.2 hPa East 0.2 km/h 3.2 km/h 73% 0.0 mm 366 W/m2
14:05 4.4 °C -1.6 °C 1020.2 hPa East 2.6 km/h 9.7 km/h 65% 0.0 mm 373 W/m2
14:10 4.5 °C -1.9 °C 1020.2 hPa ENE 2.4 km/h 6.4 km/h 63% 0.0 mm 371 W/m2
14:15 4.5 °C -2.3 °C 1019.9 hPa East 2.4 km/h 11.3 km/h 61% 0.3 mm 364 W/m2
14:20 4.6 °C -2.5 °C 1019.9 hPa East 1.4 km/h 8.0 km/h 60% 0.3 mm 360 W/m2
14:25 4.6 °C -2.3 °C 1019.9 hPa East 0.5 km/h 4.8 km/h 61% 0.3 mm 345 W/m2
14:30 4.8 °C -1.8 °C 1019.9 hPa East 0.5 km/h 6.4 km/h 62% 0.3 mm 343 W/m2
14:35 4.7 °C -2.4 °C 1019.9 hPa East 1.8 km/h 8.0 km/h 60% 0.3 mm 339 W/m2
14:40 4.8 °C -2.5 °C 1019.9 hPa East 1.8 km/h 8.0 km/h 59% 0.3 mm 334 W/m2
14:45 4.9 °C -2.4 °C 1019.9 hPa East 0.8 km/h 4.8 km/h 59% 0.3 mm 322 W/m2
14:50 5.0 °C -2.8 °C 1019.5 hPa East 1.1 km/h 8.0 km/h 57% 0.3 mm 313 W/m2
14:55 5.1 °C -2.7 °C 1019.5 hPa East 0.3 km/h 8.0 km/h 57% 0.3 mm 306 W/m2
15:00 5.2 °C -3.1 °C 1019.5 hPa North 2.4 km/h 8.0 km/h 55% 0.3 mm 297 W/m2
15:05 5.3 °C -2.8 °C 1019.5 hPa North 0.5 km/h 4.8 km/h 56% 0.3 mm 287 W/m2
15:10 5.4 °C -2.9 °C 1019.5 hPa North 1.0 km/h 4.8 km/h 55% 0.3 mm 274 W/m2
15:15 5.5 °C -3.1 °C 1019.2 hPa NE 1.3 km/h 4.8 km/h 54% 0.0 mm 274 W/m2
15:20 5.3 °C -3.2 °C 1019.2 hPa ENE 1.0 km/h 4.8 km/h 54% 0.0 mm 264 W/m2
15:25 5.3 °C -3.2 °C 1019.2 hPa ENE 0.6 km/h 4.8 km/h 54% 0.0 mm 227 W/m2
15:30 5.3 °C -3.5 °C 1019.2 hPa ENE 0.6 km/h 4.8 km/h 53% 0.0 mm 250 W/m2
15:35 5.4 °C -3.2 °C 1019.2 hPa ENE 0.2 km/h 1.6 km/h 54% 0.0 mm 209 W/m2
15:40 5.4 °C -3.2 °C 1018.8 hPa ENE 1.0 km/h 6.4 km/h 54% 0.0 mm 220 W/m2
15:45 5.5 °C -3.1 °C 1018.8 hPa ENE 1.1 km/h 4.8 km/h 54% 0.0 mm 120 W/m2
15:50 5.4 °C -3.4 °C 1018.8 hPa ENE 1.4 km/h 6.4 km/h 53% 0.0 mm 183 W/m2
15:55 5.4 °C -3.4 °C 1018.8 hPa ENE 3.1 km/h 11.3 km/h 53% 0.0 mm 176 W/m2
16:00 5.4 °C -3.4 °C 1018.8 hPa ENE 1.0 km/h 6.4 km/h 53% 0.0 mm 151 W/m2
16:05 5.4 °C -3.4 °C 1018.8 hPa ENE 1.1 km/h 4.8 km/h 53% 0.0 mm 128 W/m2
16:10 5.5 °C -3.1 °C 1018.8 hPa East 0.8 km/h 4.8 km/h 54% 0.0 mm 128 W/m2
16:15 5.6 °C -3.4 °C 1018.5 hPa East 0.3 km/h 3.2 km/h 52% 0.0 mm 97 W/m2
16:20 5.6 °C -2.9 °C 1018.5 hPa East 0.8 km/h 6.4 km/h 54% 0.0 mm 49 W/m2
16:25 5.6 °C -3.2 °C 1018.5 hPa East 1.0 km/h 8.0 km/h 53% 0.0 mm 104 W/m2
16:30 5.6 °C -3.4 °C 1018.5 hPa East 1.9 km/h 8.0 km/h 52% 0.0 mm 37 W/m2
16:35 5.5 °C -3.6 °C 1018.5 hPa East 1.0 km/h 4.8 km/h 52% 0.0 mm 81 W/m2
16:40 5.4 °C -3.2 °C 1018.5 hPa East 0.2 km/h 1.6 km/h 54% 0.0 mm 84 W/m2
16:45 5.4 °C -3.4 °C 1018.5 hPa East 0.2 km/h 1.6 km/h 53% 0.0 mm 65 W/m2
16:50 5.4 °C -3.4 °C 1018.5 hPa East 0.2 km/h 1.6 km/h 53% 0.0 mm 53 W/m2
16:55 5.3 °C -3.2 °C 1018.5 hPa East 0.2 km/h 3.2 km/h 54% 0.0 mm 26 W/m2
17:00 5.2 °C -3.3 °C 1018.5 hPa Calm     54% 0.0 mm 23 W/m2
17:05 5.1 °C -3.7 °C 1018.5 hPa East 0.2 km/h 1.6 km/h 53% 0.0 mm 23 W/m2
17:10 5.0 °C -3.3 °C 1018.5 hPa Calm     55% 0.0 mm 21 W/m2
17:15 4.9 °C -3.6 °C 1018.2 hPa East 0.2 km/h   54% 0.0 mm 21 W/m2
17:20 4.7 °C -3.6 °C 1018.2 hPa Calm     55% 0.0 mm 19 W/m2
17:30 4.4 °C -3.6 °C 1018.2 hPa Calm     56% 0.0 mm 16 W/m2
17:35 4.2 °C -3.6 °C 1017.8 hPa Calm     57% 0.0 mm 14 W/m2
17:40 4.1 °C -3.2 °C 1018.2 hPa Calm     59% 0.0 mm 12 W/m2
17:45 4.0 °C -2.8 °C 1018.2 hPa Calm     61% 0.0 mm 12 W/m2
17:50 4.0 °C -2.8 °C 1017.8 hPa Calm     61% 0.0 mm 9 W/m2
17:55 3.9 °C -2.9 °C 1017.8 hPa Calm     61% 0.0 mm 7 W/m2
18:00 3.8 °C -2.8 °C 1017.8 hPa Calm     62% 0.0 mm 5 W/m2
18:05 3.6 °C -3.0 °C 1017.8 hPa Calm     62% 0.0 mm 0 W/m2
18:10 3.4 °C -3.2 °C 1017.8 hPa Calm     62% 0.0 mm 0 W/m2
18:15 3.3 °C -3.3 °C 1017.8 hPa Calm     62% 0.0 mm 0 W/m2
18:20 3.0 °C -3.3 °C 1017.5 hPa Calm     63% 0.0 mm 0 W/m2
18:25 2.7 °C -3.4 °C 1017.5 hPa Calm   1.6 km/h 64% 0.0 mm 0 W/m2
18:30 2.5 °C -3.4 °C 1017.8 hPa Calm     65% 0.0 mm 0 W/m2
18:35 2.3 °C -3.6 °C 1017.5 hPa Calm     65% 0.0 mm 0 W/m2
18:40 2.2 °C -3.7 °C 1017.8 hPa Calm     65% 0.0 mm 0 W/m2
18:45 1.9 °C -3.8 °C 1017.8 hPa Calm   1.6 km/h 66% 0.0 mm 0 W/m2
18:50 1.8 °C -3.8 °C 1017.8 hPa Calm     66% 0.0 mm 1 W/m2
18:55 1.6 °C -3.8 °C 1017.8 hPa Calm     67% 0.0 mm 0 W/m2
19:00 1.4 °C -4.1 °C 1017.8 hPa Calm     67% 0.0 mm 0 W/m2
19:05 1.3 °C -3.9 °C 1017.8 hPa Calm     68% 0.0 mm 0 W/m2
19:10 1.2 °C -4.1 °C 1017.8 hPa Calm     68% 0.0 mm 0 W/m2
19:15 0.9 °C -4.1 °C 1017.8 hPa East 0.2 km/h 3.2 km/h 69% 0.0 mm 0 W/m2
19:20 0.8 °C -4.1 °C 1017.8 hPa East 0.2 km/h 1.6 km/h 70% 0.0 mm 0 W/m2
19:25 0.7 °C -3.9 °C 1017.8 hPa East 0.2 km/h 1.6 km/h 71% 0.0 mm 0 W/m2
19:30 0.6 °C -4.1 °C 1017.5 hPa Calm     71% 0.0 mm 0 W/m2
19:35 0.5 °C -4.1 °C 1017.5 hPa Calm     71% 0.0 mm 0 W/m2
19:40 0.4 °C -4.1 °C 1017.5 hPa Calm     72% 0.0 mm 0 W/m2
19:45 0.3 °C -4.2 °C 1017.5 hPa Calm     72% 0.0 mm 0 W/m2
19:50 0.2 °C -4.1 °C 1017.5 hPa Calm     73% 0.0 mm 0 W/m2
19:55 0.1 °C -4.2 °C 1017.5 hPa Calm     73% 0.0 mm 0 W/m2
20:00 0.1 °C -4.2 °C 1017.2 hPa Calm     73% 0.0 mm 0 W/m2
20:05 0.0 °C -4.2 °C 1017.5 hPa Calm     73% 0.0 mm 0 W/m2
20:10 -0.1 °C -4.3 °C 1017.2 hPa Calm     73% 0.0 mm 0 W/m2
20:15 -0.2 °C -4.4 °C 1017.2 hPa Calm     73% 0.0 mm 0 W/m2
20:20 -0.3 °C -4.6 °C 1017.2 hPa Calm     73% 0.0 mm 0 W/m2
20:25 -0.4 °C -4.4 °C 1017.2 hPa Calm     74% 0.0 mm 0 W/m2
20:30 -0.6 °C -4.4 °C 1017.2 hPa Calm     75% 0.0 mm 0 W/m2
20:35 -0.7 °C -4.4 °C 1017.2 hPa Calm     76% 0.0 mm 0 W/m2
20:40 -0.7 °C -4.4 °C 1017.2 hPa Calm     76% 0.0 mm 0 W/m2
20:45 -0.8 °C -4.5 °C 1017.2 hPa Calm     75% 0.0 mm 0 W/m2
20:50 -0.9 °C -4.4 °C 1016.8 hPa East 0.2 km/h 3.2 km/h 77% 0.0 mm 0 W/m2
20:55 -1.0 °C -4.5 °C 1016.8 hPa Calm     77% 0.0 mm 0 W/m2
21:00 -1.1 °C -4.6 °C 1016.8 hPa Calm   0.5 km/h 77% 0.0 mm 0 W/m2
21:05 -1.2 °C -4.7 °C 1016.8 hPa Calm     77% 0.0 mm 0 W/m2
21:10 -1.2 °C -4.7 °C 1016.8 hPa Calm     77% 0.0 mm 0 W/m2
21:15 -1.3 °C -4.6 °C 1016.8 hPa Calm     78% 0.0 mm 0 W/m2
21:20 -1.4 °C -4.7 °C 1016.5 hPa Calm   1.6 km/h 78% 0.0 mm 0 W/m2
21:25 -1.4 °C -4.7 °C 1016.5 hPa Calm     78% 0.0 mm 0 W/m2
21:30 -1.5 °C -4.7 °C 1016.5 hPa Calm     79% 0.0 mm 0 W/m2
21:35 -1.5 °C -4.7 °C 1016.5 hPa Calm     79% 0.0 mm 0 W/m2
21:40 -1.5 °C -4.5 °C 1016.5 hPa East 0.5 km/h 3.2 km/h 80% 0.0 mm 0 W/m2
21:45 -1.5 °C -4.5 °C 1016.5 hPa Calm   1.6 km/h 80% 0.0 mm 0 W/m2
21:55 -1.4 °C -4.2 °C 1016.1 hPa Calm     81% 0.0 mm 0 W/m2
22:05 -1.3 °C -3.9 °C 1016.1 hPa Calm     82% 0.0 mm 0 W/m2
22:10 -1.3 °C -3.9 °C 1016.1 hPa Calm     82% 0.0 mm 0 W/m2
22:15 -1.3 °C -4.1 °C 1015.8 hPa Calm     81% 0.0 mm 0 W/m2
22:20 -1.3 °C -4.1 °C 1015.8 hPa Calm     81% 0.0 mm 0 W/m2
22:30 -1.3 °C -4.1 °C 1015.8 hPa Calm     81% 0.0 mm 0 W/m2
22:40 -1.4 °C -4.4 °C 1015.8 hPa Calm     80% 0.0 mm 0 W/m2
22:45 -1.5 °C -4.5 °C 1015.5 hPa Calm     80% 0.0 mm 0 W/m2
22:50 -1.6 °C -4.6 °C 1015.5 hPa Calm     80% 0.0 mm 0 W/m2
22:55 -1.7 °C -4.7 °C 1015.5 hPa Calm     80% 0.0 mm 0 W/m2
23:00 -1.8 °C -4.6 °C 1015.5 hPa Calm     81% 0.0 mm 0 W/m2
23:05 -1.8 °C -4.6 °C 1015.5 hPa Calm     81% 0.0 mm 0 W/m2
23:10 -1.9 °C -4.7 °C 1015.5 hPa Calm     81% 0.0 mm 0 W/m2
23:15 -1.9 °C -4.6 °C 1015.1 hPa Calm     82% 0.0 mm 0 W/m2
23:20 -2.0 °C -4.7 °C 1015.1 hPa Calm     82% 0.0 mm 0 W/m2
23:25 -2.1 °C -4.7 °C 1015.1 hPa Calm     82% 0.0 mm 0 W/m2
23:30 -2.2 °C -4.8 °C 1015.1 hPa Calm     82% 0.0 mm 0 W/m2
23:35 -2.2 °C -4.8 °C 1015.1 hPa Calm     82% 0.0 mm 0 W/m2
23:40 -2.3 °C -4.8 °C 1015.1 hPa Calm     83% 0.0 mm 0 W/m2
23:45 -2.3 °C -4.8 °C 1015.1 hPa Calm     83% 0.0 mm 0 W/m2
23:50 -2.3 °C -4.8 °C 1015.1 hPa Calm     83% 0.0 mm 0 W/m2
Tägerwilen, Thurgau, Switzerland
Compliments of Weather Underground